Content
SEND FEEDBACK

Daily
Averages
Monthly
Summary
French Polynesia

PAPEETE, FRENCH POLYNESIA


Home > Oceania > French Polynesia
Elevation: 7 feet     Latitude: 17 33S     Longitude: 149 36W

WEATHER
 
SELECT A DAY
Number of Records: 207,916;   Date Range: 6/30/96 - 7/11/14
 
SHARE

PRINT THIS DATA

[ ← Previous Day ]
WEATHER ALMANAC - OCTOBER 21, 2013
[ Next Day → ]
[ °C ]   °F
Weather ElementAverageHighLow
Temperature79.7 °F84.2 °F (10:30 am)75 °F (5:00 am)
Dewpoint69 °F70 °F (2:00 am)68 °F (2:30 am)
Humidity69.3 %83 % (2:00 am)50 % (11:00 am)
Barometer29.88 in29.93 in (8:00 am)29.83 in (1:30 am)
Wind Speed6.1 mph11.5 mph (3:30 am)
Weather ElementAverage
Visibility8 mi
Wind DirectionWSW (234.7 °)

Weather ElementTotal
Precipitation---
Cooling Degree Days14.6 (Base 65)
Growing Degree Days29.6 (Base 50)
Averaged from 55 records on October 21, 2013
WEATHER CONDITIONS BREAKOUT
WIND DIRECTION BREAKOUT
WEATHER BY HOUR - OCTOBER 21, 2013
[ °C ]   °F
Local TimeTemperatureDewpointHumidityBarometerVisibilityWind DirectionWind SpeedGust SpeedPrecipitationEventsConditions
12:30 AM77.0 °F69.8 °F78 %29.86 in6.2 miSouth (180°)3.5 mphMostly Cloudy
1:00 AM77.0 °F69.8 °F78 %29.86 in6.2 miSouth (190°)5.8 mphMostly Cloudy
1:30 AM77.0 °F69.8 °F78 %29.83 in6.2 miSE (140°)4.6 mphMostly Cloudy
2:00 AM76.0 °F70.0 °F76 %29.84 in12.0 miSouth (190°)3.5 mphMostly Cloudy
2:00 AM75.2 °F69.8 °F83 %29.83 in6.2 miSouth (190°)3.5 mphMostly Cloudy
2:30 AM75.2 °F68.0 °F78 %29.83 in6.2 miSouth (180°)5.8 mphMostly Cloudy
3:00 AM75.2 °F68.0 °F78 %29.83 in6.2 miSouth (180°)8.1 mphMostly Cloudy
3:30 AM75.2 °F68.0 °F78 %29.83 in6.2 miSouth (180°)11.5 mphMostly Cloudy
4:00 AM75.2 °F68.0 °F78 %29.83 in6.2 miSouth (170°)5.8 mphMostly Cloudy
4:30 AM75.2 °F69.8 °F83 %29.86 in6.2 miVariable3.5 mphOvercast
5:00 AM75.0 °F68.0 °F74 %29.86 in37.0 miSouth (190°)4.6 mphClear
5:00 AM75.2 °F68.0 °F78 %29.86 in6.2 miSouth (190°)4.6 mphMostly Cloudy
5:30 AM75.2 °F68.0 °F78 %29.86 in6.2 miSSE (150°)2.3 mphOvercast
6:00 AM75.2 °F69.8 °F83 %29.86 in6.2 miVariable3.5 mphMostly Cloudy
6:30 AM77.0 °F69.8 °F78 %29.89 in6.2 miEast (100°)4.6 mphMostly Cloudy
7:00 AM77.0 °F69.8 °F78 %29.89 in6.2 miNE (40°)3.5 mphMostly Cloudy
7:30 AM78.8 °F69.8 °F74 %29.92 in6.2 miNNW (340°)5.8 mphMostly Cloudy
8:00 AM80.0 °F68.0 °F60 %29.93 in16.0 miNorth (350°)8.9 mphPartly Cloudy
8:00 AM80.6 °F68.0 °F65 %29.92 in6.2 miNorth (350°)4.6 mphMostly Cloudy
8:30 AM80.6 °F69.8 °F70 %29.92 in6.2 miWNW (300°)4.6 mphMostly Cloudy
9:00 AM82.4 °F69.8 °F66 %29.92 in6.2 miWest (270°)6.9 mphMostly Cloudy
9:30 AM82.4 °F68.0 °F62 %29.92 in6.2 miWSW (240°)4.6 mphMostly Cloudy
10:00 AM82.4 °F68.0 °F62 %29.92 in6.2 miVariable3.5 mphMostly Cloudy
10:30 AM84.2 °F68.0 °F58 %29.92 in6.2 miNNW (340°)3.5 mphMostly Cloudy
11:00 AM84.0 °F68.0 °F50 %29.92 in19.0 miNorth (350°)5.8 mphScattered Clouds
11:00 AM84.2 °F68.0 °F58 %29.92 in6.2 miNorth (350°)5.8 mphMostly Cloudy
11:30 AM82.4 °F68.0 °F62 %29.89 in6.2 miNNW (340°)8.1 mphMostly Cloudy
12:00 PM82.4 °F69.8 °F66 %29.89 in6.2 miNW (310°)10.4 mphMostly Cloudy
12:30 PM82.4 °F68.0 °F62 %29.89 in6.2 miNW (310°)9.2 mphMostly Cloudy
1:00 PM82.4 °F68.0 °F62 %29.89 in6.2 miNW (320°)8.1 mphMostly Cloudy
1:30 PM84.2 °F68.0 °F58 %29.86 in6.2 miNNW (340°)10.4 mphMostly Cloudy
2:00 PM84.0 °F69.0 °F51 %29.88 in19.0 miNorth (350°)8.1 mphScattered Clouds
2:00 PM84.2 °F68.0 °F58 %29.86 in6.2 miNorth (350°)8.1 mphMostly Cloudy
2:30 PM84.2 °F69.8 °F62 %29.86 in6.2 miNNW (340°)9.2 mphMostly Cloudy
3:00 PM84.2 °F69.8 °F62 %29.86 in6.2 miNNW (330°)11.5 mphMostly Cloudy
3:30 PM82.4 °F69.8 °F66 %29.86 in6.2 miNNW (330°)10.4 mphMostly Cloudy
4:00 PM82.4 °F68.0 °F62 %29.86 in6.2 miNNW (330°)9.2 mphMostly Cloudy
4:30 PM82.4 °F69.8 °F66 %29.86 in6.2 miNNW (330°)8.1 mphMostly Cloudy
5:00 PM82.0 °F68.0 °F54 %29.88 in19.0 miNW (320°)8.1 mphScattered Clouds
5:00 PM82.4 °F68.0 °F62 %29.86 in6.2 miNW (320°)8.1 mphMostly Cloudy
5:30 PM80.6 °F68.0 °F65 %29.86 in6.2 miWNW (300°)8.1 mphMostly Cloudy
6:00 PM80.6 °F69.8 °F70 %29.86 in6.2 miNW (310°)6.9 mphPartly Cloudy
6:30 PM80.6 °F69.8 °F70 %29.89 in6.2 miNW (310°)5.8 mphPartly Cloudy
7:00 PM78.8 °F69.8 °F74 %29.89 in6.2 miNW (310°)6.9 mphPartly Cloudy
7:30 PM78.8 °F69.8 °F74 %29.89 in6.2 miWNW (300°)8.1 mphMostly Cloudy
8:00 PM80.0 °F70.0 °F63 %29.92 in12.0 miWNW (300°)8.1 mphPartly Cloudy
8:00 PM78.8 °F69.8 °F74 %29.92 in6.2 miWNW (300°)8.1 mphMostly Cloudy
8:30 PM78.8 °F69.8 °F74 %29.92 in6.2 miNW (310°)5.8 mphMostly Cloudy
9:00 PM78.8 °F69.8 °F74 %29.92 in6.2 miWNW (300°)4.6 mphMostly Cloudy
9:30 PM78.8 °F69.8 °F74 %29.92 in6.2 miVariable2.3 mphMostly Cloudy
10:00 PM78.8 °F69.8 °F74 %29.92 in6.2 miWNW (290°)3.5 mphMostly Cloudy
10:30 PM78.8 °F69.8 °F74 %29.92 in6.2 miNorth (10°)3.5 mphMostly Cloudy
11:00 PM78.0 °F69.0 °F67 %29.92 in12.0 miEast (90°)2.3 mphOvercast
11:00 PM78.8 °F69.8 °F74 %29.92 in6.2 miVariable2.3 mphMostly Cloudy
11:30 PM78.8 °F69.8 °F74 %29.92 in6.2 miVariable1.2 mphMostly Cloudy
Hourly data recorded from NTAA, located miles away from Papeete, French Polynesia







STORIES FROM OUR PARTNERS